[[{"header":{"parameterUnit":"m.s-1","parameterCategory":1,"la1":30.2991,"la2":30.254,"lo1":-89.0895,"lo2":-89.0444,"dy":0.0017,"dx":0.0017,"nx":28,"ny":28,"refTime":"2023-09-20T09:00:00:Z","depth":0,"parameterNumber":2,"parameterNumberName":"U-component_of_WINDS"},"data":[0,0,0,0,0,0,0,0,0,0,0,0,0,0,0,0,0,0,0,0,0,0,0,0,0,0,0,0,0,0,0,0,0,0,0,0,0,0,0,0,0,0,0,0,0,0,0,0,0,0,0,0,0,0,0,0,0,0,-3.6469,-3.6469,0,-3.6438,-3.6438,-3.6438,-3.6273,-3.6269,-3.6265,-3.6262,-3.6232,-3.6235,-3.6237,0,0,0,0,0,0,0,0,0,0,0,0,0,-3.6387,-3.6389,-3.6469,-3.6469,-3.6468,-3.6438,-3.6438,-3.6438,-3.6274,-3.6269,-3.6264,-3.626,-3.6231,-3.6234,-3.6238,0,0,0,0,0,0,0,0,0,0,0,0,0,-3.6396,-3.639,-3.6469,-3.6383,-3.6375,-3.6439,-3.6438,-3.6437,-3.6275,-3.6269,-3.6263,-3.6258,-3.623,-3.6234,-3.6238,-3.6383,0,0,-3.6251,-3.6253,0,0,0,0,0,0,0,0,-3.6396,-3.64,-3.6396,-3.6389,-3.638,-3.6354,-3.6398,-3.6419,-3.6276,-3.6313,-3.6262,-3.6255,-3.6277,-3.6277,-3.6284,-3.6381,-3.638,-3.6252,-3.6254,-3.6256,-3.6257,0,0,0,0,0,0,0,-3.6396,-3.64,-3.6457,-3.6396,-3.6387,-3.6346,-3.6341,-3.6401,-3.6329,-3.6309,-3.6297,-3.6296,-3.6272,-3.6281,-3.6283,-3.6379,-3.6252,-3.6255,-3.6258,-3.626,-3.6592,-3.6598,0,0,0,0,0,0,-3.6407,-3.6401,-3.6458,-3.6456,-3.6374,-3.6353,-3.6347,-3.6368,-3.6327,-3.6316,-3.6301,-3.6288,-3.6276,-3.6278,-3.6281,-3.6445,-3.6256,-3.626,-3.6263,-3.6586,-3.6594,-3.66,0,0,0,0,0,0,-3.6406,-3.6414,-3.6459,-3.6425,-3.6428,-3.636,-3.6386,-3.6371,-3.6379,-3.6321,-3.6307,-3.6323,-3.6272,-3.6275,-3.6358,-3.6442,-3.6262,-3.6266,-3.6579,-3.6588,-3.6597,-3.6778,0,0,0,0,0,0,-3.6404,-3.6414,-3.6468,-3.6427,-3.643,-3.6537,-3.6391,-3.6374,-3.6387,-3.637,-3.6338,-3.6328,-3.6267,-3.6353,-3.6362,-3.6445,-3.6269,-3.6571,-3.6583,-3.6594,-3.6764,-3.6792,-3.6816,0,0,0,0,0,-3.6402,-3.6521,-3.6472,-3.6479,-3.6496,-3.6542,-3.6544,-3.6471,-3.6395,-3.6448,-3.6411,-3.6329,-3.6432,-3.6363,-3.6372,-3.6457,-3.6565,-3.6579,-3.6593,-3.6752,-3.6787,-3.6816,0,0,0,0,0,0,-3.6573,-3.6514,-3.6459,-3.6568,-3.6561,-3.6514,-3.6579,-3.6511,-3.6526,-3.651,-3.642,-3.6414,-3.6511,-3.6493,-3.6416,-3.6595,-3.6485,-3.6501,-3.6602,-3.6635,-3.666,-3.6661,-3.6273,0,0,0,0,0,-3.6624,-3.6666,-3.6612,-3.6714,-3.6713,-3.6648,-3.6665,-3.661,-3.66,-3.6596,-3.6565,-3.6558,-3.6589,-3.6611,-3.6637,-3.6762,-3.6752,-3.6825,-3.6851,-3.6873,-3.6888,-3.6951,-3.6983,-3.6647,-3.6646,-3.6646,0,0,-3.6729,-3.6701,-3.6733,-3.6747,-3.6736,-3.6781,-3.6646,-3.67,-3.6733,-3.6604,-3.668,-3.6658,-3.6645,-3.6749,-3.6794,-3.6737,-3.6979,-3.6891,-3.6909,-3.6911,-3.6969,-3.7001,-3.7029,-3.6656,-3.6654,-3.6653,0,0,-3.6942,-3.6927,-3.7008,-3.7,-3.6984,-3.6939,-3.696,-3.6923,-3.6903,-3.6978,-3.6882,-3.6921,-3.6976,-3.697,-3.6975,-3.7187,-3.7112,-3.7199,-3.7334,-3.7397,-3.7424,-3.7447,-3.7521,-3.7549,-3.7214,-3.7214,-3.7215,0,-3.7074,-3.7138,-3.7059,-3.7119,-3.7128,-3.7014,-3.7096,-3.7092,-3.7086,-3.7095,-3.7032,-3.7098,-3.7082,-3.7182,-3.7235,-3.7243,-3.7262,-3.72,-3.7426,-3.7449,-3.7469,-3.7539,-3.7567,-3.7225,-3.7224,-3.7223,-3.7222,0,-3.73,-3.7346,-3.7415,-3.741,-3.7427,-3.7499,-3.7431,-3.7458,-3.7403,-3.7365,-3.7443,-3.742,-3.7437,-3.7458,-3.7405,-3.7552,-3.7517,-3.7442,-3.7329,-3.7513,-3.7576,-3.7603,-3.724,-3.7236,-3.7233,-3.723,0,0,-3.7618,-3.757,-3.7596,-3.7592,-3.7567,-3.7602,-3.7669,-3.7685,-3.7709,-3.771,-3.7762,-3.7813,-3.7743,-3.7748,-3.7694,-3.775,-3.7918,-3.7667,-3.7665,-3.7713,-3.8077,-3.8131,-3.8163,-3.7869,-3.7874,-3.7878,-3.8077,0,-3.782,-3.7929,-3.7861,-3.7981,-3.8022,-3.7915,-3.7973,-3.7964,-3.7932,-3.7963,-3.7927,-3.7963,-3.787,-3.7872,-3.7923,-3.7887,-3.7989,-3.7872,-3.7916,-3.7919,-3.792,-3.8197,-3.8254,-3.8443,-3.8102,-3.8106,-3.8109,0,-3.8069,-3.808,-3.8204,-3.817,-3.8184,-3.8237,-3.8247,-3.8278,-3.8267,-3.8239,-3.8246,-3.8177,-3.824,-3.8132,-3.8217,-3.8139,-3.8154,-3.8139,-3.8145,-3.8144,-3.8023,-3.8201,-3.8502,-3.853,-3.8148,-3.8145,-3.8142,0,-3.8286,-3.8331,-3.841,-3.8411,-3.8374,-3.8414,-3.8401,-3.8383,-3.8397,-3.8407,-3.8415,-3.8433,-3.8442,-3.8458,-3.8396,-3.8323,-3.849,-3.8376,-3.8467,-3.8469,-3.8504,-3.8503,-3.881,-3.852,-3.8519,-3.8519,-3.8518,0,-3.8516,-3.8596,-3.8507,-3.8555,-3.8641,-3.8563,-3.8651,-3.8626,-3.8612,-3.8654,-3.8565,-3.8606,-3.8523,-3.8557,-3.851,-3.8587,-3.8593,-3.8572,-3.8557,-3.8578,-3.858,-3.8584,-3.8568,-3.8526,-3.8525,-3.8523,-3.8522,0,-3.8771,-3.8715,-3.8794,-3.8753,-3.8745,-3.881,-3.8774,-3.8818,-3.878,-3.8835,-3.8843,-3.8785,-3.8819,-3.876,-3.8789,-3.8757,-3.8863,-3.8831,-3.8867,-3.8856,-3.895,-3.8941,-3.9268,-3.9306,-3.8995,-3.8998,-3.9001,0,-3.892,-3.8979,-3.8944,-3.8965,-3.8957,-3.8993,-3.9007,-3.8934,-3.8953,-3.8944,-3.8989,-3.9016,-3.9034,-3.9095,-3.9055,-3.9076,-3.9041,-3.9155,-3.9044,-3.9062,-3.904,-3.9036,-3.9041,-3.9176,-3.918,-3.9183,-3.9186,0,-3.9191,-3.916,-3.9183,-3.9198,-3.9218,-3.9226,-3.9228,-3.9251,-3.9173,-3.9199,-3.9233,-3.9247,-3.9276,-3.9304,-3.9315,-3.9302,-3.9231,-3.9222,-3.9243,-3.9263,-3.9281,-3.927,-3.8926,-3.9214,-3.9211,-3.9209,-3.9207,-3.9206,-3.9395,-3.9441,-3.9424,-3.9453,-3.9447,-3.9451,-3.9489,-3.9457,-3.9483,-3.95,-3.9456,-3.9501,-3.9488,-3.9496,-3.9491,-3.9525,-3.9475,-3.9507,-3.9515,-3.9523,-3.9537,-3.9278,-3.9527,-3.9527,-3.9526,-3.9525,-3.9524,0,-3.9658,-3.9641,-3.967,-3.9674,-3.9698,-3.963,-3.9629,-3.9653,-3.9693,-3.9687,-3.9706,-3.9746,-3.9773,-3.9736,-3.9757,-3.9792,-3.976,-3.9799,-3.9794,-3.9792,-3.9582,-3.9559,-3.9825,-3.9825,-3.9825,-3.9824,-3.9824,-3.9824,-3.9797,-3.9871,-3.9839,-3.991,-3.9893,-3.9935,-3.994,-3.9943,-3.9938,-3.9986,-4.0008,-3.9983,-3.9965,-3.9984,-4.0006,-3.9995,-4.0005,-4.0056,-4.0033,-3.9837,-3.9807,-3.9779,-3.9757,-4.006,-4.006,-4.024,-4.0242,-4.0243]},{"header":{"parameterUnit":"m.s-1","parameterCategory":1,"la1":30.2991,"la2":30.254,"lo1":-89.0895,"lo2":-89.0444,"dy":0.0017,"dx":0.0017,"nx":28,"ny":28,"refTime":"2023-09-20T09:00:00:Z","depth":0,"parameterNumber":3,"parameterNumberName":"V-component_of_WINDS"},"data":[0,0,0,0,0,0,0,0,0,0,0,0,0,0,0,0,0,0,0,0,0,0,0,0,0,0,0,0,0,0,0,0,0,0,0,0,0,0,0,0,0,0,0,0,0,0,0,0,0,0,0,0,0,0,0,0,0,0,-0.1657,-0.1658,0,-0.1794,-0.1795,-0.1797,-0.1936,-0.1938,-0.194,-0.1941,-0.2081,-0.2083,-0.2085,0,0,0,0,0,0,0,0,0,0,0,0,0,-0.1514,-0.1516,-0.1657,-0.1659,-0.166,-0.1793,-0.1795,-0.1797,-0.1936,-0.1938,-0.194,-0.1942,-0.208,-0.2082,-0.2085,0,0,0,0,0,0,0,0,0,0,0,0,0,-0.1606,-0.1517,-0.1657,-0.1745,-0.1755,-0.1793,-0.1795,-0.1798,-0.1935,-0.1938,-0.1941,-0.1943,-0.2079,-0.2082,-0.2085,-0.2047,0,0,-0.2094,-0.2095,0,0,0,0,0,0,0,0,-0.1601,-0.1611,-0.1731,-0.1739,-0.175,-0.1851,-0.1796,-0.1881,-0.1934,-0.1867,-0.1942,-0.1945,-0.2002,-0.2011,-0.2031,-0.2053,-0.2059,-0.2094,-0.2096,-0.2097,-0.2098,0,0,0,0,0,0,0,-0.1594,-0.1606,-0.1711,-0.1732,-0.1744,-0.1778,-0.1794,-0.1813,-0.1917,-0.1873,-0.1883,-0.1897,-0.2008,-0.2028,-0.2035,-0.2061,-0.2094,-0.2097,-0.2099,-0.21,-0.2056,-0.2053,0,0,0,0,0,0,-0.1574,-0.16,-0.1707,-0.1715,-0.1681,-0.1778,-0.1796,-0.1815,-0.1917,-0.1935,-0.1895,-0.1903,-0.2021,-0.2032,-0.204,-0.2001,-0.2097,-0.21,-0.2102,-0.2059,-0.2056,-0.2052,0,0,0,0,0,0,-0.1571,-0.1583,-0.1701,-0.166,-0.1678,-0.1778,-0.1798,-0.1817,-0.1837,-0.1934,-0.1953,-0.1896,-0.2024,-0.2036,-0.2044,-0.2008,-0.2101,-0.2104,-0.2063,-0.2058,-0.2054,-0.1921,0,0,0,0,0,0,-0.1566,-0.1581,-0.1568,-0.1659,-0.168,-0.1702,-0.1796,-0.1817,-0.1842,-0.1854,-0.194,-0.1957,-0.2027,-0.2038,-0.2046,-0.2013,-0.2106,-0.2066,-0.2061,-0.2055,-0.1929,-0.1913,-0.1899,0,0,0,0,0,-0.1561,-0.1525,-0.1566,-0.1578,-0.1665,-0.17,-0.1712,-0.1793,-0.1838,-0.1825,-0.1887,-0.1954,-0.201,-0.2038,-0.2048,-0.2015,-0.2069,-0.2062,-0.2056,-0.1936,-0.1916,-0.1899,0,0,0,0,0,0,-0.1428,-0.1539,-0.1586,-0.1579,-0.1629,-0.1723,-0.171,-0.177,-0.1808,-0.1818,-0.1917,-0.1936,-0.1931,-0.1974,-0.2003,-0.1982,-0.2049,-0.2044,-0.1954,-0.1936,-0.1921,-0.1911,-0.2109,0,0,0,0,0,-0.1397,-0.1416,-0.1512,-0.1497,-0.152,-0.161,-0.1628,-0.1686,-0.1742,-0.1764,-0.1827,-0.1877,-0.1907,-0.1924,-0.1956,-0.1936,-0.1956,-0.1918,-0.1903,-0.189,-0.1885,-0.1875,-0.1859,-0.2031,-0.2031,-0.2031,0,0,-0.1335,-0.1398,-0.1405,-0.1472,-0.1517,-0.1534,-0.1627,-0.1641,-0.1654,-0.1766,-0.1777,-0.1823,-0.1887,-0.188,-0.188,-0.1916,-0.1841,-0.1882,-0.187,-0.1873,-0.1867,-0.185,-0.1836,-0.2026,-0.2027,-0.2028,0,0,-0.1231,-0.1281,-0.1273,-0.1316,-0.1383,-0.1443,-0.144,-0.1526,-0.1561,-0.1573,-0.1657,-0.1673,-0.1721,-0.1763,-0.179,-0.1697,-0.176,-0.1705,-0.1626,-0.1615,-0.1602,-0.159,-0.1556,-0.1543,-0.1699,-0.1699,-0.1699,0,-0.1145,-0.1174,-0.1261,-0.1269,-0.1296,-0.1397,-0.1389,-0.1426,-0.15,-0.1516,-0.1555,-0.1616,-0.1666,-0.1669,-0.1646,-0.1665,-0.1665,-0.1696,-0.1597,-0.1586,-0.1577,-0.1545,-0.1532,-0.1692,-0.1693,-0.1693,-0.1694,0,-0.1065,-0.1083,-0.1069,-0.1137,-0.1162,-0.1161,-0.1247,-0.1262,-0.1316,-0.1372,-0.1381,-0.1444,-0.149,-0.1495,-0.1549,-0.1505,-0.1525,-0.1578,-0.1647,-0.1551,-0.1523,-0.1512,-0.1682,-0.1684,-0.1686,-0.1688,0,0,-0.0883,-0.0997,-0.099,-0.1021,-0.1101,-0.1117,-0.112,-0.1165,-0.1175,-0.1221,-0.1226,-0.1263,-0.1313,-0.1344,-0.1403,-0.1394,-0.1315,-0.1449,-0.1452,-0.1421,-0.1267,-0.1226,-0.1211,-0.1356,-0.1354,-0.1353,-0.1262,0,-0.0792,-0.0805,-0.0882,-0.0872,-0.0889,-0.0983,-0.0986,-0.1035,-0.1086,-0.1107,-0.1163,-0.1187,-0.1252,-0.1271,-0.1266,-0.1325,-0.1285,-0.1333,-0.1361,-0.1361,-0.1342,-0.1196,-0.1154,-0.1065,-0.1251,-0.125,-0.1248,0,-0.0689,-0.0728,-0.0719,-0.0797,-0.0807,-0.0808,-0.0854,-0.0873,-0.0929,-0.0967,-0.0999,-0.1066,-0.1073,-0.1137,-0.1148,-0.1179,-0.1194,-0.1225,-0.1223,-0.1229,-0.1299,-0.1198,-0.1039,-0.1025,-0.1232,-0.1234,-0.1235,0,-0.0555,-0.0606,-0.0607,-0.0631,-0.0722,-0.072,-0.0758,-0.0817,-0.0838,-0.0877,-0.0892,-0.0931,-0.0953,-0.0981,-0.1056,-0.1095,-0.1057,-0.1128,-0.1088,-0.1086,-0.1076,-0.1076,-0.0917,-0.1086,-0.1086,-0.1086,-0.1087,0,-0.0446,-0.0437,-0.0548,-0.0549,-0.054,-0.0628,-0.0617,-0.0664,-0.0715,-0.0725,-0.0809,-0.0817,-0.0915,-0.0934,-0.0992,-0.0991,-0.1001,-0.103,-0.1046,-0.1023,-0.1019,-0.1035,-0.1043,-0.1083,-0.1084,-0.1084,-0.1085,0,-0.0297,-0.0371,-0.0378,-0.0463,-0.0483,-0.0473,-0.0546,-0.0549,-0.0604,-0.0616,-0.0624,-0.0709,-0.0735,-0.0812,-0.0858,-0.0897,-0.0879,-0.0908,-0.0859,-0.0869,-0.0825,-0.0827,-0.067,-0.0653,-0.0832,-0.0831,-0.0829,0,-0.0223,-0.0217,-0.03,-0.0313,-0.0347,-0.0367,-0.0388,-0.0473,-0.0491,-0.0553,-0.0548,-0.058,-0.0611,-0.0648,-0.0714,-0.0748,-0.0779,-0.0721,-0.0785,-0.0761,-0.0777,-0.0777,-0.0776,-0.0708,-0.0705,-0.0703,-0.0702,0,-0.0082,-0.0118,-0.0146,-0.0184,-0.0207,-0.0242,-0.0282,-0.0287,-0.0382,-0.0398,-0.0425,-0.0448,-0.0493,-0.0524,-0.0568,-0.0607,-0.0669,-0.0681,-0.0673,-0.065,-0.0621,-0.0635,-0.0821,-0.0684,-0.0686,-0.0687,-0.0688,-0.0689,0.0032,0.0033,-0.0025,-0.0051,-0.009,-0.0124,-0.013,-0.0185,-0.0209,-0.0252,-0.0301,-0.0321,-0.0376,-0.0442,-0.0475,-0.0492,-0.0526,-0.0515,-0.0512,-0.0508,-0.0497,-0.0618,-0.05,-0.0501,-0.0501,-0.0502,-0.0502,0,0.0168,0.0127,0.0104,0.0052,0.0032,-0.0024,-0.007,-0.0083,-0.0101,-0.0146,-0.0173,-0.0203,-0.0232,-0.0299,-0.0334,-0.0334,-0.0364,-0.0341,-0.0342,-0.0349,-0.0465,-0.0468,-0.0316,-0.0316,-0.0316,-0.0316,-0.0316,-0.0316,0.0237,0.0236,0.0194,0.0175,0.0133,0.0113,0.0092,0.006,0.0024,-0.0005,-0.0029,-0.0073,-0.0126,-0.0165,-0.0193,-0.0212,-0.0221,-0.0188,-0.0216,-0.0323,-0.0341,-0.0358,-0.0361,-0.0189,-0.0189,-0.0099,-0.0098,-0.0097]}]]